Wind_Speed
29 28 26 25 23 22 19 20 21 21 22 22 22 23 23 21 21 21 23 22 20 23 25 25 22 22 19 9 14 10 11 9 7 5 6 10 11 10 6 6 8 10 10 6 8 7 9
31 31 30 29 22 22 22 22 23 22 24 25 24 22 21 21 20 20 21 22 23 22 23 24 22 21 12 15 8 9 8 6 7 6 6 5 7 10 11 9 7 6 10 13 12 13 13
34 27 26 23 22 24 24 23 22 23 25 25 22 20 20 19 20 19 21 21 22 23 23 24 22 19 16 19 9 8 9 7 8 6 6 5 5 6 7 9 5 9 12 14 15 16 12
30 31 29 26 26 22 22 24 23 23 22 24 22 20 20 20 20 20 20 21 21 21 22 21 19 15 11 10 10 11 10 11 9 7 7 5 5 8 9 8 12 11 15 14 8 8 8
27 22 20 18 14 19 25 28 27 25 23 24 23 20 19 19 19 19 19 19 19 20 20 18 16 7 10 7 2 3 1 6 9 8 6 5 5 9 7 11 12 14 13 14 11 12 6
18 17 18 23 28 27 29 33 30 28 27 26 23 21 19 19 19 18 16 16 17 18 14 10 9 8 10 4 4 4 4 4 6 7 8 8 8 9 10 10 12 14 12 9 12 7 9
30 29 27 25 25 31 32 32 35 28 26 25 23 20 19 18 17 16 12 10 9 6 9 12 6 12 6 6 9 4 6 6 9 10 12 11 9 13 14 7 12 12 15 18 18 17 11
21 22 20 20 25 28 31 31 31 26 24 23 20 19 18 17 14 12 7 5 6 4 11 16 20 21 18 12 7 10 6 8 11 14 14 8 14 13 8 8 13 16 18 19 19 18 17
23 21 18 19 19 19 18 21 21 21 20 20 18 18 17 13 11 8 5 5 5 5 8 10 11 11 9 12 11 12 9 11 13 14 15 14 9 1 5 12 15 15 16 17 17 18 20
24 25 22 20 18 19 19 18 20 17 14 16 17 16 13 5 2 6 4 6 3 1 5 9 6 4 5 5 6 7 9 13 9 11 12 12 9 10 11 15 14 16 16 13 14 14 15
25 27 24 22 21 19 20 16 15 15 12 15 16 12 8 12 3 4 7 7 5 2 5 4 7 2 5 7 3 4 4 11 13 9 6 4 7 6 8 7 3 11 5 11 12 14 17
25 27 25 23 22 20 19 15 12 15 11 12 11 10 8 7 7 9 9 10 6 3 7 4 4 6 7 7 4 4 3 4 3 8 11 16 16 8 12 10 9 10 9 15 15 15 16
28 28 26 24 23 20 21 16 13 12 9 13 11 9 7 10 3 8 11 8 3 6 3 7 6 7 10 7 8 8 8 8 8 7 11 12 14 16 16 13 12 13 12 9 12 12 15
31 30 29 27 24 22 22 20 15 13 10 15 13 10 8 7 11 14 12 4 8 2 6 2 5 8 9 8 5 7 7 10 9 10 10 12 8 11 7 12 11 9 12 11 18 15 15
33 31 31 29 26 25 22 21 16 13 10 17 15 9 8 9 12 18 12 6 4 6 2 4 7 9 9 8 4 4 9 12 4 6 7 5 7 2 6 7 7 7 11 14 16 18 14
32 32 33 31 30 26 24 22 18 15 13 19 14 10 9 11 14 12 8 8 8 1 3 5 10 4 9 10 4 6 7 1 3 5 6 6 10 11 10 9 15 15 12 10 6 12 18
34 33 33 33 32 30 28 25 22 18 16 17 15 5 9 12 13 16 9 12 8 5 3 3 5 3 5 4 7 11 7 2 6 5 8 10 8 8 6 9 13 12 14 13 15 12 12
33 34 36 36 35 33 31 28 25 22 17 21 9 4 8 16 13 14 12 13 2 9 8 4 3 4 6 7 8 11 12 6 0 6 7 5 5 10 17 15 13 12 16 10 8 16 14
38 35 35 36 37 36 34 31 30 26 23 22 7 6 9 17 9 10 12 12 9 9 9 6 5 5 5 4 4 6 12 7 11 7 4 8 6 9 12 14 19 14 18 18 17 15 16
33 41 42 36 37 39 38 34 33 30 27 25 10 4 4 12 18 12 15 13 13 9 10 7 5 5 8 8 9 4 8 6 7 9 11 7 12 15 13 15 16 12 15 13 15 9 14
35 37 41 42 39 41 42 40 36 33 31 26 11 5 12 6 12 12 12 7 14 8 13 9 8 14 11 6 10 14 14 14 12 15 19 10 16 15 17 19 21 22 22 19 21 21 18
36 37 41 40 38 43 46 43 38 36 34 28 10 4 12 9 22 16 9 11 10 12 8 10 12 8 11 13 12 6 3 8 11 8 11 15 19 15 8 14 19 21 17 16 22 24 25
39 37 41 42 48 46 47 46 44 39 40 22 20 13 11 7 13 13 14 13 9 11 10 13 10 9 10 11 10 13 14 15 14 14 12 11 8 11 19 16 18 19 12 20 24 24 23
38 41 41 47 45 54 50 49 46 43 45 21 20 13 10 4 10 12 8 17 14 12 12 8 12 12 9 1 8 12 16 19 21 21 23 18 15 13 14 14 19 16 17 14 15 15 15
38 40 37 46 46 41 46 48 46 44 45 22 20 15 9 6 11 11 16 12 14 16 16 17 18 16 12 4 6 7 9 10 17 24 23 20 15 10 13 15 17 22 16 15 8 14 13
38 38 39 41 44 47 47 49 45 43 43 32 21 17 10 5 9 12 12 12 10 10 11 19 19 16 15 5 4 9 8 9 5 4 21 20 14 11 9 14 15 11 4 5 1 10 4
33 34 40 40 41 44 46 46 42 43 42 42 20 20 15 8 11 8 11 10 13 10 7 6 4 8 13 4 6 9 13 15 12 11 8 13 12 16 14 13 13 16 10 6 6 2 3
32 36 38 42 49 43 43 42 41 42 41 39 32 20 18 9 11 9 13 12 9 6 3 1 3 8 3 4 5 9 7 10 12 12 7 11 9 9 11 15 14 13 8 5 3 2 3
27 34 33 44 47 49 48 44 40 40 39 37 25 23 19 12 6 11 19 20 17 18 14 8 7 4 5 3 3 5 6 4 10 5 14 8 11 9 7 6 3 2 3 2 1 2 2
Wind_Direction
252 251 251 246 248 256 256 265 273 281 284 287 290 292 294 296 296 298 297 295 298 305 310 315 325 331 338 317 281 288 295 301 322 326 332 329 311 318 294 317 302 259 289 279 258 254 252
250 248 244 239 245 249 256 266 274 278 283 288 289 290 292 292 292 294 294 290 298 302 305 310 320 328 329 281 287 285 286 299 296 310 311 327 321 318 290 279 274 346 289 278 259 254 242
250 237 240 242 239 253 260 262 267 277 285 284 284 286 288 290 292 291 292 291 293 296 299 306 311 323 300 263 291 283 292 274 275 287 296 303 299 284 324 266 258 267 269 256 230 234 233
226 236 226 236 252 250 256 260 264 272 279 283 284 285 288 289 289 289 290 292 291 294 297 303 304 316 268 278 275 282 275 260 260 273 282 278 283 281 262 303 256 254 246 267 194 191 192
228 231 234 231 250 275 268 263 264 268 274 277 281 283 283 285 286 287 290 291 290 290 294 296 307 267 275 265 265 288 297 236 243 240 263 268 279 264 234 239 257 220 264 255 191 185 253
249 251 249 269 278 269 266 264 269 278 280 279 277 282 284 286 287 289 293 296 297 295 295 298 261 262 253 247 254 245 274 214 229 234 241 243 246 246 219 246 258 303 289 257 258 239 201
263 272 270 276 278 284 273 269 271 274 273 272 274 277 277 280 282 288 299 327 294 246 227 239 306 257 269 282 277 235 229 228 232 232 247 199 251 236 260 327 320 294 282 276 278 287 273
253 253 263 271 270 265 266 267 270 270 260 261 266 269 273 275 277 279 281 253 296 289 295 264 258 258 261 272 277 244 227 219 210 242 219 231 245 263 336 304 282 274 272 270 277 276 273
249 248 253 270 276 270 269 269 267 251 247 250 253 259 267 270 270 264 222 241 260 307 259 270 232 249 246 232 248 243 220 235 244 248 247 243 267 122 265 271 270 263 266 277 283 298 293
241 242 245 252 261 265 267 270 275 252 238 230 237 248 256 255 259 209 214 210 233 246 277 175 195 176 179 202 230 224 231 224 226 256 255 264 274 290 275 261 264 275 283 293 295 277 275
241 238 242 242 249 256 263 270 258 244 249 232 231 236 241 180 253 185 187 206 177 78 279 100 136 168 181 208 102 172 217 208 244 209 243 248 195 218 243 262 293 280 334 283 280 274 282
238 236 239 242 246 253 248 251 259 250 255 218 215 232 244 213 199 221 203 160 132 191 240 146 132 187 180 201 202 146 192 203 239 250 246 259 281 268 265 273 271 264 276 262 261 262 265
236 236 237 237 242 238 240 239 255 271 255 198 197 218 195 195 215 189 161 143 177 222 129 173 188 186 224 172 188 209 188 194 227 230 234 221 238 233 223 254 241 233 258 274 273 255 260
238 236 234 233 233 226 231 235 241 261 257 199 199 207 208 204 189 168 154 198 224 251 208 56 186 189 206 177 200 214 236 249 204 261 272 272 264 193 171 250 272 271 247 256 275 284 297
236 234 229 229 227 224 229 231 229 238 236 200 196 201 214 211 176 166 178 211 247 257 87 208 185 186 187 194 281 238 250 274 280 235 246 308 255 72 244 269 250 264 240 262 276 277 275
238 232 227 226 225 226 224 225 221 225 214 202 190 202 217 203 180 176 211 231 231 155 268 235 228 245 231 207 208 203 254 113 227 265 278 272 276 278 271 270 239 253 279 284 255 269 267
237 233 229 223 224 225 219 217 217 210 211 195 195 211 182 182 174 200 216 225 217 193 227 258 216 213 247 252 253 266 264 205 236 194 271 271 267 259 229 240 261 235 241 245 261 275 276
239 235 230 226 224 221 217 212 214 204 203 187 189 216 191 177 189 212 230 230 124 202 195 198 282 276 253 268 262 262 268 250 329 292 269 257 279 271 266 275 274 265 278 269 257 267 271
234 231 228 227 222 219 216 212 207 198 195 179 196 184 182 186 205 208 230 211 229 209 209 198 236 246 263 246 276 279 266 283 300 261 299 299 242 260 261 238 233 248 256 260 270 276 270
242 232 233 225 220 218 213 209 203 196 188 181 174 167 187 204 231 230 212 215 212 225 241 223 251 225 240 242 243 243 239 241 264 265 14 324 267 267 273 292 312 275 276 294 290 267 276
243 238 233 233 220 217 208 207 197 194 182 188 194 222 188 178 225 224 223 224 212 194 224 213 225 229 231 221 262 249 245 261 272 267 260 247 262 267 275 284 286 285 286 292 284 283 277
241 240 230 234 225 219 203 203 191 188 179 192 181 193 175 231 199 212 198 218 221 213 194 218 232 211 223 237 212 250 256 256 268 266 293 226 251 263 263 271 267 263 263 262 264 268 271
243 239 234 227 219 217 210 195 192 186 180 195 200 210 211 209 186 197 218 215 234 243 212 243 238 250 243 254 279 275 277 274 260 268 254 254 254 248 264 264 272 264 244 237 256 260 263
245 241 231 223 218 211 197 194 192 191 189 187 190 192 205 206 215 201 212 220 224 229 235 226 231 243 267 330 313 280 263 261 260 250 239 248 244 249 264 278 269 270 258 257 249 261 276
240 236 228 210 211 207 200 189 189 193 193 189 181 188 189 213 201 212 210 218 222 231 234 255 254 257 266 299 279 271 251 246 241 237 234 225 242 256 249 253 262 271 235 228 242 277 283
234 222 226 214 205 205 197 198 193 198 195 198 199 195 194 231 214 221 227 244 251 250 256 253 250 250 251 206 216 247 250 246 244 232 207 222 219 233 245 235 255 269 128 82 71 275 69
225 213 219 210 210 195 197 196 198 200 200 203 196 199 190 219 241 231 213 224 218 230 240 224 205 235 212 189 214 247 249 254 248 244 178 192 203 225 230 255 268 282 127 127 250 342 165
223 208 215 206 199 192 189 194 196 196 199 200 203 204 202 225 231 212 233 236 222 220 231 124 268 219 164 227 226 237 252 250 239 252 192 184 201 218 235 250 262 260 112 231 62 134 147
202 200 195 175 185 187 186 187 189 197 200 197 205 211 216 223 234 221 241 243 245 257 266 246 252 224 217 235 239 284 256 262 232 247 206 220 214 215 217 210 356 268 36 152 256 229 203
Height
1545 1546 1547 1549 1549 1551 1550 1551 1551 1552 1552 1550 1549 1548 1548 1546 1545 1545 1544 1543 1542 1540 1538 1535 1533 1531 1528 1530 1526 1520 1519 1518 1518 1517 1517 1517 1513 1509 1501 1502 1502 1499 1495 1498 1497 1499 1498
1537 1540 1542 1542 1545 1547 1546 1546 1548 1548 1548 1548 1546 1546 1544 1543 1541 1541 1542 1542 1540 1538 1535 1533 1532 1530 1532 1528 1522 1519 1517 1518 1520 1518 1516 1515 1515 1514 1508 1503 1502 1500 1500 1497 1495 1495 1495
1533 1534 1536 1538 1540 1543 1544 1543 1544 1544 1544 1543 1543 1543 1542 1540 1539 1537 1538 1537 1537 1535 1533 1531 1530 1528 1529 1523 1519 1518 1518 1518 1518 1518 1516 1514 1514 1513 1509 1502 1502 1501 1498 1487 1488 1490 1491
1528 1530 1531 1533 1536 1538 1539 1540 1540 1540 1540 1540 1541 1539 1539 1537 1536 1535 1533 1534 1534 1532 1530 1529 1528 1528 1523 1518 1515 1514 1514 1516 1517 1518 1516 1513 1512 1512 1510 1506 1502 1496 1489 1488 1469 1485 1488
1522 1525 1527 1530 1531 1534 1534 1535 1536 1535 1535 1536 1537 1537 1534 1533 1532 1531 1531 1531 1529 1529 1527 1526 1527 1529 1521 1514 1513 1512 1512 1515 1515 1515 1515 1513 1512 1509 1506 1501 1492 1483 1485 1473 1472 1479 1481
1519 1521 1523 1526 1528 1530 1529 1530 1530 1532 1532 1532 1533 1533 1532 1531 1530 1529 1527 1528 1526 1527 1525 1524 1525 1531 1517 1515 1512 1510 1512 1512 1515 1514 1512 1511 1509 1502 1495 1491 1491 1476 1476 1473 1475 1471 1477
1515 1516 1518 1521 1522 1524 1524 1525 1525 1529 1527 1528 1529 1528 1528 1527 1527 1528 1527 1528 1528 1524 1525 1518 1515 1515 1515 1513 1511 1508 1510 1511 1513 1512 1506 1503 1500 1493 1482 1483 1488 1490 1488 1484 1476 1473 1477
1510 1512 1513 1514 1517 1518 1519 1520 1519 1523 1523 1523 1524 1525 1524 1524 1523 1524 1526 1529 1528 1526 1520 1515 1513 1512 1514 1514 1509 1510 1510 1510 1508 1504 1498 1502 1497 1486 1487 1494 1497 1494 1489 1483 1476 1474 1476
1508 1509 1511 1513 1514 1515 1515 1516 1516 1516 1519 1519 1519 1519 1521 1522 1523 1522 1525 1527 1525 1527 1521 1507 1507 1508 1509 1512 1509 1504 1506 1506 1503 1501 1496 1497 1488 1494 1496 1494 1494 1490 1487 1483 1481 1478 1476
1503 1504 1507 1509 1510 1512 1513 1511 1513 1512 1516 1515 1517 1517 1517 1521 1524 1522 1525 1521 1522 1524 1519 1498 1505 1502 1505 1507 1506 1505 1503 1505 1502 1500 1495 1494 1491 1495 1496 1495 1493 1493 1484 1483 1487 1490 1483
1497 1500 1503 1504 1507 1506 1510 1509 1510 1510 1510 1513 1517 1514 1517 1517 1522 1521 1521 1520 1520 1524 1517 1500 1500 1506 1504 1505 1503 1503 1503 1503 1499 1497 1501 1492 1493 1495 1495 1490 1493 1495 1492 1492 1489 1488 1483
1492 1494 1497 1500 1501 1504 1504 1506 1509 1508 1508 1509 1514 1514 1514 1517 1518 1519 1519 1519 1522 1521 1512 1499 1500 1501 1503 1503 1503 1503 1502 1503 1501 1498 1494 1493 1492 1493 1493 1490 1491 1493 1494 1491 1485 1482 1484
1487 1489 1491 1494 1497 1498 1501 1504 1505 1508 1507 1509 1510 1513 1512 1516 1520 1515 1521 1521 1522 1511 1495 1494 1495 1497 1496 1496 1499 1499 1497 1498 1494 1497 1490 1483 1485 1485 1491 1492 1487 1491 1493 1493 1485 1474 1465
1479 1483 1486 1489 1491 1493 1497 1499 1502 1505 1507 1509 1509 1512 1511 1515 1514 1517 1521 1522 1518 1490 1489 1495 1493 1495 1495 1497 1496 1497 1493 1490 1487 1488 1488 1484 1484 1478 1481 1485 1480 1476 1479 1484 1486 1473 1459
1472 1476 1480 1484 1487 1490 1492 1496 1499 1502 1504 1508 1509 1511 1511 1513 1514 1515 1522 1519 1498 1489 1493 1496 1496 1493 1493 1495 1498 1497 1491 1488 1483 1485 1491 1486 1485 1478 1484 1483 1483 1477 1481 1475 1478 1471 1473
1465 1468 1473 1477 1482 1485 1489 1493 1495 1498 1502 1507 1509 1510 1511 1511 1514 1517 1517 1505 1495 1500 1501 1499 1495 1491 1490 1489 1499 1496 1489 1486 1489 1491 1488 1487 1493 1481 1478 1480 1480 1480 1476 1483 1476 1490 1476
1457 1461 1466 1471 1476 1480 1484 1488 1492 1496 1502 1505 1507 1508 1506 1511 1513 1515 1506 1499 1496 1502 1504 1501 1494 1497 1493 1496 1496 1495 1491 1489 1494 1490 1491 1487 1488 1485 1480 1479 1475 1471 1475 1473 1472 1473 1481
1450 1454 1458 1463 1468 1474 1479 1482 1489 1492 1499 1502 1504 1506 1504 1509 1511 1507 1504 1499 1502 1503 1504 1503 1503 1501 1500 1500 1502 1498 1497 1491 1495 1493 1490 1485 1487 1490 1480 1470 1469 1471 1470 1470 1482 1475 1468
1442 1446 1449 1453 1461 1467 1472 1478 1482 1488 1494 1500 1501 1502 1504 1507 1499 1500 1499 1499 1506 1502 1500 1500 1502 1502 1503 1507 1509 1506 1499 1497 1496 1494 1493 1490 1488 1487 1474 1468 1467 1469 1468 1465 1462 1464 1472
1433 1437 1442 1446 1452 1459 1465 1471 1477 1483 1490 1496 1499 1500 1503 1502 1496 1491 1495 1498 1501 1502 1501 1501 1502 1504 1504 1506 1505 1511 1501 1499 1499 1497 1500 1501 1491 1486 1483 1476 1474 1477 1476 1469 1470 1477 1472
1424 1429 1432 1436 1443 1450 1456 1464 1470 1478 1485 1492 1492 1489 1493 1495 1498 1494 1490 1493 1494 1497 1501 1501 1500 1502 1502 1508 1506 1502 1499 1497 1497 1498 1499 1500 1492 1488 1483 1480 1477 1472 1467 1465 1464 1459 1463
1415 1419 1424 1429 1434 1440 1448 1455 1462 1472 1481 1487 1487 1486 1487 1483 1493 1494 1491 1492 1492 1491 1497 1498 1497 1494 1497 1497 1499 1498 1496 1497 1497 1498 1492 1489 1487 1488 1492 1487 1479 1476 1476 1476 1469 1464 1460
1406 1410 1415 1420 1426 1428 1439 1449 1459 1467 1474 1479 1483 1483 1485 1483 1485 1490 1489 1493 1493 1493 1494 1496 1495 1495 1494 1496 1497 1498 1499 1501 1500 1497 1492 1489 1487 1486 1478 1474 1468 1463 1463 1462 1455 1452 1448
1396 1399 1405 1410 1416 1421 1430 1441 1452 1460 1465 1473 1477 1482 1483 1481 1480 1482 1487 1490 1491 1494 1493 1494 1495 1496 1497 1497 1499 1497 1496 1495 1494 1491 1490 1486 1485 1482 1478 1476 1475 1455 1447 1443 1442 1442 1442
1385 1390 1393 1401 1408 1417 1424 1435 1446 1455 1463 1468 1472 1479 1480 1481 1480 1483 1485 1487 1488 1490 1493 1493 1491 1493 1495 1499 1498 1493 1481 1482 1477 1476 1475 1477 1478 1480 1477 1469 1456 1444 1437 1437 1441 1443 1439
1375 1381 1388 1393 1402 1412 1421 1431 1442 1451 1459 1465 1469 1476 1479 1481 1479 1481 1482 1485 1485 1487 1490 1489 1490 1491 1494 1497 1497 1486 1471 1459 1454 1453 1459 1467 1475 1479 1467 1465 1456 1436 1439 1441 1444 1444 1443
1368 1373 1380 1388 1395 1406 1416 1427 1438 1447 1455 1462 1466 1472 1477 1481 1478 1480 1481 1483 1485 1485 1482 1481 1485 1485 1487 1489 1488 1477 1465 1455 1452 1448 1457 1463 1472 1472 1466 1459 1444 1434 1437 1443 1449 1449 1448
1361 1368 1374 1379 1391 1403 1414 1424 1434 1443 1451 1458 1464 1469 1474 1477 1477 1479 1480 1481 1482 1485 1483 1482 1484 1480 1485 1484 1479 1463 1457 1450 1450 1443 1451 1452 1461 1458 1458 1456 1454 1435 1440 1445 1446 1447 1448
1355 1363 1371 1375 1387 1400 1411 1421 1431 1440 1448 1456 1463 1466 1471 1476 1476 1475 1477 1479 1480 1480 1483 1481 1480 1481 1482 1480 1476 1464 1455 1449 1447 1451 1441 1449 1442 1439 1440 1440 1441 1441 1443 1444 1446 1446 1449